Home   Weather   Valparaíso   Past weeks

Flag for Chile Past Weather in Valparaíso, Chile — Yesterday and Last 2 Weeks

81 °F


Feels Like: 80 °F
Forecast: N/A
Wind: 12 mph from Southwest

Location: Pudahuel

Current Time: Oct 26, 2016 at 8:22:39 PM

Latest Report: Oct 26, 2016 at 8:00 PM

Visibility: 10 mi

Pressure: 29.89 "Hg

Humidity: 34%

Dew Point: 50 °F

Location of ValparaísoLocation

Past Weather in Valparaíso — Graph


Valparaíso Temperature Yesterday

Maximum temperature yesterday: 75 °F (at 4:00 PM)
Minimum temperature yesterday: 46 °F (at 4:00 AM)
Average temperature yesterday: 61 °F

High & Low Weather Summary for the Past Weeks

High86 °F (Oct 26, 4:00 PM)94% (Oct 13, 8:00 AM)30.21 "Hg (Oct 13, 8:00 AM)
Low39 °F (Oct 19, 5:00 AM)16% (Oct 26, 3:00 PM)29.83 "Hg (Oct 21, 3:00 PM)
Average58 °F61%30.04 "Hg
* Reported Oct 11 7:00 PM — Oct 26 7:00 PM, Valparaíso, Weather by CustomWeather, © 2016

Note: Actual official high and low records may vary slightly from our data, if they occured in-between our weather recording intervals... More about our weather records


Valparaíso Weather History for the Previous 24 Hours

Scroll right to see more
Time TempWeatherWind HumidityBarometerVisibility
7:00 PM
Wed, Oct 26
84 °FSunny.10 mph25%29.89 "Hg10 mi
6:00 PM86 °FPassing clouds.10 mph20%29.89 "HgN/A
5:00 PM86 °FPassing clouds.12 mph18%29.89 "HgN/A
4:00 PM86 °FPassing clouds.10 mph17%29.92 "HgN/A
3:00 PM84 °FPassing clouds.7 mph16%29.95 "HgN/A
2:00 PM82 °FPassing clouds.6 mph19%29.95 "HgN/A
1:00 PM81 °FSunny.6 mph20%29.98 "Hg10 mi
12:00 PM75 °FSunny.3 mph29%30.01 "Hg10 mi
11:00 AM70 °FPassing clouds.3 mph38%30.04 "HgN/A
10:00 AM64 °FSunny.2 mph46%30.07 "Hg10 mi
9:00 AM59 °FClear.2 mph55%30.07 "Hg5 mi
8:00 AM54 °FClear.5 mph67%30.07 "Hg5 mi
7:00 AM48 °FClear.2 mph82%30.07 "Hg5 mi
6:00 AM52 °FClear.1 mph72%30.07 "Hg10 mi
5:00 AM52 °FClear.2 mph72%30.07 "Hg10 mi
4:00 AM52 °FClear.3 mph77%30.09 "Hg10 mi
3:00 AM54 °FPassing clouds.5 mph72%30.09 "HgN/A
2:00 AM59 °FClear.2 mph59%30.12 "Hg10 mi
1:00 AM64 °FClear.9 mph49%30.12 "Hg10 mi
12:00 AM61 °FPassing clouds.3 mph59%30.12 "HgN/A
11:00 PM
Tue, Oct 25
63 °FClear.7 mph56%30.12 "Hg10 mi
10:00 PM66 °FClear.8 mph49%30.12 "Hg10 mi
9:00 PM68 °FClear.9 mph40%30.09 "Hg10 mi
8:00 PM70 °FSunny.12 mph38%30.07 "Hg10 mi
Weather by CustomWeather, © 2016

See weather overviewHow to use our weather pages